When you browse on this site, cookies collect data to enhance your experience and personalize the content and advertising you see.
Visit our Privacy Policy to learn more. By continuing to use the site, you agree to this use of cookies and data.
  • In Portugal
  • List of Countries
  • For 7 days
  • Water Temperature
  • Weather Map
  • Weather Widgets
  • user-avatar
    Login

    Hourly Weather Bridgetown

    Today, 24 October, Thursday

    Time Temperature Precipitation Wind Pressure Humidity
    00:00 +29°C° 0.1 mm 5 mps 758 mmHg 82%
    01:00 +29°C° 0.1 mm 5 mps 758 mmHg 82%
    02:00 +29°C° 0.1 mm 5 mps 757 mmHg 83%
    03:00 +29°C° 0 mm 5 mps 757 mmHg 83%
    04:00 +29°C° 0 mm 5 mps 757 mmHg 82%
    05:00 +28°C° 0 mm 5 mps 757 mmHg 82%
    06:00 +29°C° 0 mm 5 mps 758 mmHg 81%
    07:00 +29°C° 0 mm 5 mps 758 mmHg 79%
    08:00 +30°C° 0 mm 5 mps 759 mmHg 77%
    09:00 +30°C° 0 mm 5 mps 759 mmHg 75%
    10:00 +32°C° 0 mm 5 mps 759 mmHg 73%
    11:00 +32°C° 0 mm 5 mps 759 mmHg 71%
    12:00 +32°C° 0.1 mm 6 mps 759 mmHg 72%
    13:00 +32°C° 0.1 mm 6 mps 758 mmHg 74%
    14:00 +30°C° 0.1 mm 6 mps 758 mmHg 76%
    15:00 +30°C° 0.1 mm 6 mps 758 mmHg 76%
    16:00 +30°C° 0.1 mm 6 mps 758 mmHg 77%
    17:00 +30°C° 0.1 mm 5 mps 758 mmHg 77%
    18:00 +29°C° 0.1 mm 6 mps 758 mmHg 78%
    19:00 +29°C° 0.1 mm 6 mps 758 mmHg 80%
    20:00 +29°C° 0.1 mm 6 mps 759 mmHg 81%
    21:00 +29°C° 0.1 mm 6 mps 759 mmHg 81%
    22:00 +29°C° 0.1 mm 6 mps 759 mmHg 81%
    23:00 +29°C° 0.1 mm 5 mps 759 mmHg 81%

    Tomorrow, 25 October, Friday

    Time Temperature Precipitation Wind Pressure Humidity
    00:00 +29°C° 0.1 mm 5 mps 758 mmHg 81%
    01:00 +29°C° 0.1 mm 5 mps 758 mmHg 81%
    02:00 +28°C° 0.1 mm 5 mps 757 mmHg 82%
    03:00 +28°C° 0 mm 5 mps 758 mmHg 82%
    04:00 +28°C° 0 mm 5 mps 758 mmHg 81%
    05:00 +28°C° 0 mm 4 mps 758 mmHg 81%
    06:00 +29°C° 0.2 mm 4 mps 758 mmHg 79%
    07:00 +29°C° 0.2 mm 4 mps 759 mmHg 77%
    08:00 +30°C° 0.2 mm 4 mps 759 mmHg 74%
    09:00 +30°C° 0.1 mm 4 mps 759 mmHg 73%
    10:00 +32°C° 0.1 mm 5 mps 759 mmHg 72%
    11:00 +32°C° 0.1 mm 5 mps 759 mmHg 71%
    12:00 +32°C° 0 mm 5 mps 759 mmHg 71%
    13:00 +32°C° 0 mm 5 mps 758 mmHg 71%
    14:00 +32°C° 0 mm 5 mps 758 mmHg 72%
    15:00 +30°C° 0 mm 5 mps 758 mmHg 75%
    16:00 +30°C° 0 mm 5 mps 758 mmHg 78%
    17:00 +29°C° 0 mm 5 mps 758 mmHg 80%
    18:00 +29°C° 0.1 mm 5 mps 758 mmHg 81%
    19:00 +29°C° 0.1 mm 5 mps 758 mmHg 82%
    20:00 +29°C° 0.1 mm 5 mps 759 mmHg 82%
    21:00 +29°C° 0.1 mm 5 mps 759 mmHg 82%
    22:00 +29°C° 0.1 mm 5 mps 759 mmHg 82%
    23:00 +29°C° 0.1 mm 5 mps 759 mmHg 82%

    Day after tomorrow, 26 October, Saturday

    Time Temperature Precipitation Wind Pressure Humidity
    00:00 +29°C° 0.1 mm 5 mps 759 mmHg 82%
    01:00 +28°C° 0.1 mm 4 mps 758 mmHg 83%
    02:00 +28°C° 0.1 mm 4 mps 758 mmHg 83%
    03:00 +28°C° 0.1 mm 4 mps 758 mmHg 83%
    04:00 +28°C° 0.1 mm 4 mps 758 mmHg 84%
    05:00 +28°C° 0.1 mm 4 mps 758 mmHg 84%
    06:00 +29°C° 0 mm 4 mps 758 mmHg 81%
    07:00 +29°C° 0 mm 4 mps 759 mmHg 79%
    08:00 +30°C° 0 mm 4 mps 759 mmHg 76%
    09:00 +30°C° 0 mm 4 mps 759 mmHg 74%
    10:00 +32°C° 0 mm 4 mps 759 mmHg 71%
    11:00 +32°C° 0 mm 4 mps 759 mmHg 69%
    12:00 +32°C° 0 mm 4 mps 759 mmHg 69%
    13:00 +32°C° 0 mm 4 mps 758 mmHg 68%
    14:00 +32°C° 0 mm 4 mps 758 mmHg 68%
    15:00 +32°C° 0 mm 4 mps 758 mmHg 69%
    16:00 +30°C° 0 mm 4 mps 758 mmHg 70%
    17:00 +30°C° 0 mm 4 mps 758 mmHg 71%
    18:00 +30°C° 0 mm 4 mps 758 mmHg 74%
    19:00 +29°C° 0 mm 4 mps 758 mmHg 77%
    20:00 +29°C° 0 mm 4 mps 759 mmHg 80%
    21:00 +29°C° 0.1 mm 4 mps 759 mmHg 81%
    22:00 +29°C° 0.1 mm 4 mps 759 mmHg 82%
    23:00 +29°C° 0.1 mm 5 mps 759 mmHg 83%

    , 27 October, Sunday

    Time Temperature Precipitation Wind Pressure Humidity
    00:00 +29°C° 0.2 mm 5 mps 758 mmHg 83%
    01:00 +29°C° 0.2 mm 5 mps 758 mmHg 83%
    02:00 +29°C° 0.2 mm 5 mps 758 mmHg 84%
    03:00 +28°C° 0.3 mm 5 mps 758 mmHg 84%
    04:00 +28°C° 0.3 mm 5 mps 758 mmHg 85%
    05:00 +28°C° 0.3 mm 6 mps 758 mmHg 85%
    06:00 +29°C° 0.1 mm 6 mps 758 mmHg 83%
    07:00 +29°C° 0.1 mm 6 mps 758 mmHg 80%
    08:00 +30°C° 0.1 mm 6 mps 759 mmHg 77%
    09:00 +30°C° 0 mm 5 mps 759 mmHg 76%
    10:00 +30°C° 0 mm 5 mps 759 mmHg 75%
    11:00 +32°C° 0 mm 5 mps 759 mmHg 74%
    12:00 +32°C° 0.1 mm 5 mps 758 mmHg 74%
    13:00 +32°C° 0.1 mm 5 mps 758 mmHg 73%
    14:00 +32°C° 0.1 mm 5 mps 757 mmHg 73%
    15:00 +32°C° 0.1 mm 5 mps 757 mmHg 75%
    16:00 +30°C° 0.1 mm 5 mps 757 mmHg 78%
    17:00 +30°C° 0.1 mm 5 mps 757 mmHg 80%
    18:00 +29°C° 0.2 mm 5 mps 758 mmHg 81%
    19:00 +29°C° 0.2 mm 6 mps 758 mmHg 83%
    20:00 +29°C° 0.2 mm 6 mps 758 mmHg 84%
    21:00 +29°C° 0.1 mm 6 mps 758 mmHg 84%
    22:00 +29°C° 0.1 mm 6 mps 758 mmHg 85%
    23:00 +29°C° 0.1 mm 6 mps 758 mmHg 85%

    27 October, Sunday

    Time Temperature Precipitation Wind Pressure Humidity
    00:00 +29°C° 0.2 mm 5 mps 758 mmHg 83%
    01:00 +29°C° 0.2 mm 5 mps 758 mmHg 83%
    02:00 +29°C° 0.2 mm 5 mps 758 mmHg 84%
    03:00 +28°C° 0.3 mm 5 mps 758 mmHg 84%
    04:00 +28°C° 0.3 mm 5 mps 758 mmHg 85%
    05:00 +28°C° 0.3 mm 6 mps 758 mmHg 85%
    06:00 +29°C° 0.1 mm 6 mps 758 mmHg 83%
    07:00 +29°C° 0.1 mm 6 mps 758 mmHg 80%
    08:00 +30°C° 0.1 mm 6 mps 759 mmHg 77%
    09:00 +30°C° 0 mm 5 mps 759 mmHg 76%
    10:00 +30°C° 0 mm 5 mps 759 mmHg 75%
    11:00 +32°C° 0 mm 5 mps 759 mmHg 74%
    12:00 +32°C° 0.1 mm 5 mps 758 mmHg 74%
    13:00 +32°C° 0.1 mm 5 mps 758 mmHg 73%
    14:00 +32°C° 0.1 mm 5 mps 757 mmHg 73%
    15:00 +32°C° 0.1 mm 5 mps 757 mmHg 75%
    16:00 +30°C° 0.1 mm 5 mps 757 mmHg 78%
    17:00 +30°C° 0.1 mm 5 mps 757 mmHg 80%
    18:00 +29°C° 0.2 mm 5 mps 758 mmHg 81%
    19:00 +29°C° 0.2 mm 6 mps 758 mmHg 83%
    20:00 +29°C° 0.2 mm 6 mps 758 mmHg 84%
    21:00 +29°C° 0.1 mm 6 mps 758 mmHg 84%
    22:00 +29°C° 0.1 mm 6 mps 758 mmHg 85%
    23:00 +29°C° 0.1 mm 6 mps 758 mmHg 85%

    28 October, Monday

    Time Temperature Precipitation Wind Pressure Humidity
    00:00 +29°C° 0.1 mm 5 mps 758 mmHg 85%
    01:00 +28°C° 0.1 mm 5 mps 758 mmHg 84%
    02:00 +28°C° 0.1 mm 5 mps 757 mmHg 84%
    03:00 +28°C° 0 mm 5 mps 757 mmHg 84%
    04:00 +28°C° 0 mm 5 mps 757 mmHg 85%
    05:00 +28°C° 0 mm 5 mps 757 mmHg 85%
    06:00 +29°C° 0.1 mm 5 mps 758 mmHg 83%
    07:00 +29°C° 0.1 mm 5 mps 758 mmHg 80%
    08:00 +30°C° 0.1 mm 5 mps 759 mmHg 77%
    09:00 +30°C° 0 mm 5 mps 759 mmHg 75%
    10:00 +30°C° 0 mm 5 mps 759 mmHg 73%
    11:00 +32°C° 0 mm 5 mps 759 mmHg 71%
    12:00 +32°C° 0 mm 5 mps 758 mmHg 70%
    13:00 +32°C° 0 mm 5 mps 758 mmHg 69%
    14:00 +32°C° 0 mm 5 mps 757 mmHg 68%
    15:00 +30°C° 0 mm 5 mps 757 mmHg 71%
    16:00 +30°C° 0 mm 5 mps 757 mmHg 74%
    17:00 +30°C° 0 mm 5 mps 757 mmHg 76%
    18:00 +29°C° 0 mm 5 mps 757 mmHg 78%
    19:00 +29°C° 0 mm 5 mps 758 mmHg 79%
    20:00 +29°C° 0 mm 5 mps 758 mmHg 81%
    21:00 +29°C° 0 mm 5 mps 758 mmHg 82%
    22:00 +29°C° 0 mm 6 mps 758 mmHg 83%
    23:00 +29°C° 0 mm 6 mps 758 mmHg 84%

    29 October, Tuesday

    Time Temperature Precipitation Wind Pressure Humidity
    00:00 +29°C° 0 mm 6 mps 757 mmHg 83%
    01:00 +28°C° 0 mm 6 mps 757 mmHg 83%
    02:00 +28°C° 0 mm 6 mps 757 mmHg 82%
    03:00 +28°C° 0 mm 6 mps 757 mmHg 82%
    04:00 +28°C° 0 mm 6 mps 757 mmHg 82%
    05:00 +28°C° 0 mm 5 mps 757 mmHg 81%
    06:00 +29°C° 0 mm 5 mps 757 mmHg 80%
    07:00 +29°C° 0 mm 5 mps 758 mmHg 78%
    08:00 +30°C° 0 mm 5 mps 758 mmHg 76%
    09:00 +30°C° 0 mm 5 mps 758 mmHg 76%
    10:00 +32°C° 0 mm 6 mps 758 mmHg 75%
    11:00 +32°C° 0 mm 6 mps 758 mmHg 75%
    12:00 +32°C° 0.1 mm 6 mps 757 mmHg 75%
    13:00 +32°C° 0.1 mm 6 mps 757 mmHg 76%
    14:00 +32°C° 0.1 mm 6 mps 756 mmHg 76%
    15:00 +30°C° 0.3 mm 6 mps 756 mmHg 77%
    16:00 +30°C° 0.3 mm 6 mps 756 mmHg 78%
    17:00 +30°C° 0.3 mm 6 mps 756 mmHg 79%
    18:00 +29°C° 0 mm 6 mps 757 mmHg 80%
    19:00 +29°C° 0 mm 6 mps 757 mmHg 81%
    20:00 +29°C° 0 mm 6 mps 758 mmHg 82%
    21:00 +29°C° 0.1 mm 6 mps 758 mmHg 83%
    22:00 +29°C° 0.1 mm 6 mps 757 mmHg 84%
    23:00 +29°C° 0.1 mm 6 mps 757 mmHg 84%
    Show more